Time,TemperatureF,DewpointF,PressureIn,WindDirection,WindDirectionDegrees,WindSpeedMPH,WindSpeedGustMPH,Humidity,HourlyPrecipIn,Conditions,Clouds,dailyrainin,SoftwareType,DateUTC
2015-08-28 00:03:00,60.0,55.0,-100.00,ENE,60,1.0,3.0,80,-99.99,,,-99.99,,2015-08-28 04:03:00,
2015-08-28 00:13:00,61.0,55.0,-100.00,East,100,1.0,3.0,79,-99.99,,,-99.99,,2015-08-28 04:13:00,
2015-08-28 00:23:00,62.0,55.0,-100.00,East,95,1.0,4.0,77,-99.99,,,-99.99,,2015-08-28 04:23:00,
2015-08-28 00:34:00,62.0,55.0,-100.00,SSE,150,1.0,3.0,77,-99.99,,,-99.99,,2015-08-28 04:34:00,
2015-08-28 00:45:00,61.0,54.0,-100.00,East,100,1.0,3.0,77,-99.99,,,-99.99,,2015-08-28 04:45:00,
2015-08-28 00:53:00,60.0,55.0,-100.00,ENE,70,0.0,3.0,83,-99.99,,,-99.99,,2015-08-28 04:53:00,
2015-08-28 01:05:00,60.0,55.0,-100.00,ESE,110,0.0,4.0,83,-99.99,,,-99.99,,2015-08-28 05:05:00,
2015-08-28 01:13:00,60.0,55.0,-100.00,NNW,340,0.0,3.0,81,-99.99,,,-99.99,,2015-08-28 05:13:00,
2015-08-28 01:24:00,61.0,55.0,-100.00,ESE,115,0.0,2.0,80,-99.99,,,-99.99,,2015-08-28 05:24:00,
2015-08-28 01:36:00,60.0,55.0,-100.00,NE,50,0.0,3.0,84,-99.99,,,-99.99,,2015-08-28 05:36:00,
2015-08-28 01:46:00,60.0,55.0,-100.00,ESE,120,0.0,2.0,82,-99.99,,,-99.99,,2015-08-28 05:46:00,
2015-08-28 01:55:00,59.0,54.0,-100.00,NNW,345,1.0,3.0,81,-99.99,,,-99.99,,2015-08-28 05:55:00,
2015-08-28 02:04:00,57.0,53.0,-100.00,WNW,300,2.0,4.0,87,-99.99,,,-99.99,,2015-08-28 06:04:00,
2015-08-28 02:14:00,56.0,53.0,-100.00,WNW,300,1.0,4.0,89,-99.99,,,-99.99,,2015-08-28 06:14:00,
2015-08-28 02:24:00,57.0,54.0,-100.00,NW,310,1.0,3.0,89,-99.99,,,-99.99,,2015-08-28 06:24:00,
2015-08-28 02:34:00,56.0,53.0,-100.00,NW,305,0.0,4.0,89,-99.99,,,-99.99,,2015-08-28 06:34:00,
2015-08-28 02:44:00,56.0,53.0,-100.00,NW,310,2.0,3.0,89,-99.99,,,-99.99,,2015-08-28 06:44:00,
2015-08-28 02:54:00,56.0,53.0,-100.00,NW,310,2.0,3.0,89,-99.99,,,-99.99,,2015-08-28 06:54:00,
2015-08-28 03:04:00,56.0,53.0,-100.00,NE,35,0.0,4.0,89,-99.99,,,-99.99,,2015-08-28 07:04:00,
2015-08-28 03:23:00,55.0,52.0,-100.00,NW,310,2.0,4.0,87,-99.99,,,-99.99,,2015-08-28 07:23:00,
2015-08-28 03:34:00,54.0,51.0,-100.00,NW,310,1.0,4.0,89,-99.99,,,-99.99,,2015-08-28 07:34:00,
2015-08-28 03:44:00,54.0,51.0,-100.00,NW,310,1.0,4.0,89,-99.99,,,-99.99,,2015-08-28 07:44:00,
2015-08-28 03:53:00,54.0,51.0,-100.00,NW,310,1.0,4.0,89,-99.99,,,-99.99,,2015-08-28 07:53:00,
2015-08-28 04:03:00,55.0,52.0,-100.00,NNW,345,2.0,4.0,90,-99.99,,,-99.99,,2015-08-28 08:03:00,
2015-08-28 04:13:00,55.0,51.0,-100.00,NNW,345,4.0,5.0,88,-99.99,,,-99.99,,2015-08-28 08:13:00,
2015-08-28 04:24:00,56.0,52.0,-100.00,North,355,4.0,6.0,87,-99.99,,,-99.99,,2015-08-28 08:24:00,
2015-08-28 04:33:00,55.0,51.0,-100.00,NW,325,3.0,5.0,88,-99.99,,,-99.99,,2015-08-28 08:33:00,
2015-08-28 04:44:00,54.0,50.0,-100.00,NW,320,3.0,5.0,88,-99.99,,,-99.99,,2015-08-28 08:44:00,